Location: Bonham State Park
(33.5448°N, 96.1455°W)
Time: 02:31:42
(UTC+00:00)

Daily predictions for brighter satellites

Satellite Brightness Start Highest point End
(mag) Time Altitude Azimuth Time Altitude Azimuth Time Altitude Azimuth
Cosmos 2233 Rocket 4.3 01:40:53 10° N 01:47:12 76° W 01:53:29 10° S
Resurs 01 Rocket 2.6 01:46:54 10° SE 01:50:44 30° ENE 01:54:37 10° N
Cosmos 2237 Rocket 3.7 01:51:12 10° SW 01:56:34 43° WNW 02:01:59 10° N
SL-24 R/B - RUBIN 2 4.4 01:51:28 10° SSW 01:57:18 88° ESE 02:03:49 10° NNE
Cosmos 1782 2.7 01:56:28 10° S 02:00:12 63° E 02:03:59 10° NNE
BREEZE-M DEB (TANK) 4.0 01:58:19 10° W 02:01:13 44° NNW 02:05:58 10° NE
OAO 2 Rocket 3.5 02:00:01 10° W 02:05:20 83° N 02:10:35 10° E
Meteor 2-14 Rocket 4.5 01:59:17 10° S 02:05:25 87° E 02:11:35 10° N
H-2A R/B 0.8 02:04:17 10° SW 02:05:53 20° S 02:06:28 16° SE
Okean O Rocket 2.3 02:02:14 10° SE 02:06:18 37° ENE 02:10:24 10° N
Cosmos-2242 3.0 02:03:18 10° S 02:07:29 87° W 02:11:44 10° N
USA 290 4.0 02:10:31 10° NNE 02:12:48 18° ENE 02:14:20 13° E
Aureole 2 4.0 02:13:26 10° NNW 02:16:17 81° WSW 02:19:08 11° SSE
Feng Yun 1-1 Rocket 4.4 02:14:12 10° SSE 02:20:03 77° ENE 02:25:59 10° N
DELTA 2 DEB (DPAF) 4.1 02:18:57 10° N 02:23:11 80° WNW 02:27:24 10° SSW
SL-8 R/B 4.1 02:21:38 10° WSW 02:26:20 64° NW 02:31:03 10° NE
Cosmos 1943 Rocket 2.2 02:20:45 10° NNW 02:26:26 89° WSW 02:31:46 11° SSE
SPOT 1/Viking Rocket 4.3 02:23:08 10° S 02:28:09 52° W 02:33:11 10° NNW
FALCON 9 R/B 2.6 02:33:14 10° W 02:37:15 82° N 02:50:00 10° E
Cosmos 494 Rocket 4.4 02:33:53 10° S 02:38:35 39° ESE 02:43:18 10° NNE
Cosmos 2221 2.7 02:36:34 15° SSE 02:39:55 50° E 02:44:07 10° NNE
CZ-4B R/B 3.7 02:36:33 10° S 02:41:50 56° W 02:47:03 10° NNW
ATLAS 3B R/B 3.2 02:36:07 10° NNW 02:43:52 58° NE 02:48:59 22° SE
USA 186 3.7 02:43:17 10° SSW 02:45:59 27° W 02:48:45 10° NW
Okean-O 2.8 02:43:47 24° SE 02:46:11 54° ENE 02:50:30 10° N
Cosmos 2278 Rocket 3.8 02:41:31 10° NW 02:46:26 31° WSW 02:51:20 10° SSW
Centaur D AC-29 2.8 02:42:52 10° SW 02:46:50 36° SSE 02:58:31 10° E
Cosmos 1464 Rocket 4.1 02:40:57 10° N 02:47:13 82° W 02:53:24 10° S
ATLAS 5 CENTAUR R/B 4.3 02:43:50 10° WNW 02:48:18 23° WSW 02:53:21 10° SSW
CZ-4C R/B 3.2 02:45:41 10° NNE 02:49:32 80° ESE 02:53:09 12° S
CARTOSAT-1 4.1 02:46:38 11° S 02:50:35 55° W 02:54:46 10° NNW
MetOp-B 4.5 02:54:08 27° SE 02:56:41 48° ENE 03:01:49 10° N
Cosmos 2297 4.3 02:52:16 10° N 02:57:40 41° ENE 03:00:02 28° ESE
Cosmos 921 Rocket 3.0 02:53:55 10° SSW 02:58:21 88° W 03:02:52 10° NNE
Cosmos 1371 Rocket 4.2 02:55:10 10° N 03:00:26 56° ENE 03:02:41 32° SE
OAO 3 Copernicus 4.3 02:55:52 10° W 03:00:53 68° SSW 03:02:55 35° SE
Lacrosse 5 1.9 02:58:28 10° NW 03:03:35 74° NE 03:05:39 36° SE
MOS 1 4.2 03:01:43 27° SSE 03:04:58 76° ENE 03:10:38 10° N
Cosmos 1420 Rocket 3.9 03:03:31 10° NNW 03:08:51 83° ENE 03:11:13 34° SSE
OAO 1 4.4 03:05:14 10° WSW 03:10:39 63° SSE 03:13:34 27° E
Terra 2.6 03:11:35 31° E 03:12:17 32° ENE 03:16:28 10° N
SL-16 R/B 4.0 03:11:13 10° SW 03:16:12 32° WNW 03:21:14 10° N
IRS-1A Rocket 4.3 03:16:28 38° SE 03:18:37 65° ENE 03:24:08 10° N
Cosmos 1603 4.0 03:17:41 40° SE 03:18:48 45° ESE 03:24:10 10° NE
USA 308 4.5 03:17:13 10° W 03:19:12 16° SW 03:19:18 16° SW
Cosmos 1743 2.7 03:15:47 10° N 03:19:07 58° ENE 03:19:07 58° ENE
Meteor 2-6 Rocket 4.1 03:16:48 23° S 03:20:29 86° E 03:26:02 10° N
Spot 2 Rocket 4.1 03:20:07 34° E 03:20:52 36° ENE 03:25:27 10° N
GEOS 3 Rocket 3.4 03:16:01 10° NE 03:21:08 70° ESE 03:26:04 11° SSW
Cosmos 1634 Rocket 4.0 03:15:01 10° N 03:21:12 62° E 03:23:26 39° SE
SPOT 5 2.6 03:21:11 46° SSE 03:22:34 88° ENE 03:27:05 10° NNW
Resurs 01 Rocket 4.0 03:23:59 10° SW 03:27:09 19° W 03:30:20 10° NW
NOSS 3-1 (A) 4.4 03:22:19 10° NW 03:30:18 70° WSW 03:35:18 30° SSE
Cosmos 2369 Rocket 2.2 03:27:49 10° NNW 03:33:22 62° ENE 03:34:31 51° ESE
Cosmos 1726 4.0 03:35:40 10° NNE 03:36:42 18° NNE 03:36:42 18° NNE
Okean 3 Rocket 3.7 03:35:51 10° N 03:39:52 59° ENE 03:39:52 59° ENE
Cosmos 1842 Rocket 3.6 03:40:11 61° SW 03:40:53 76° W 03:45:19 10° N
Okean O Rocket 4.2 03:40:03 10° SW 03:42:40 15° W 03:45:17 10° WNW
Ariane Rocket 3.0 03:43:07 59° E 03:43:30 61° ENE 03:48:29 10° N
BREEZE-M DEB (TANK) 4.3 03:21:27 10° SW 03:45:34 88° NW 03:50:21 10° NE
USA 229 DEB 4.2 03:38:13 10° NNW 03:45:48 62° ENE 03:48:32 42° ESE
USA 229 4.2 03:38:19 10° NNW 03:45:55 61° ENE 03:48:38 42° ESE
ARGOS Delta rocket 3.9 03:46:25 63° S 03:47:14 83° WSW 03:52:12 10° NNW
OAO 2 Rocket 3.8 03:44:54 10° W 03:49:36 47° SW 03:49:36 47° SW
Cosmos 1656 Rocket 3.7 03:44:51 10° NNW 03:50:18 68° WSW 03:51:20 55° SSW
Meteor 1-27 Rocket 3.9 03:51:15 52° E 03:51:15 52° E 03:56:18 10° NNE
Cosmos 1943 4.0 03:50:26 10° SW 03:55:55 50° WNW 04:01:25 10° N
Cosmos 2056 Rocket 4.5 03:51:20 10° NNW 03:56:19 41° W 03:57:41 34° SW
Cosmos 1452 Rocket 3.8 03:55:14 10° N 04:00:07 53° ENE 04:00:07 53° ENE
Cosmos 2142 Rocket 4.4 03:56:27 10° N 04:02:49 76° E 04:03:39 66° SE
Cosmos 44 4.4 04:04:14 10° NW 04:08:06 32° WSW 04:08:06 32° WSW
ERS-1 Rocket 3.8 04:15:22 41° WSW 04:15:44 42° W 04:20:30 10° NNW
Sich 1 4.4 04:13:02 10° N 04:15:38 33° NNE 04:15:38 33° NNE
Meteor 2-9 Rocket 4.4 04:14:31 10° N 04:20:00 65° ENE 04:20:00 65° ENE
USA 59 Rocket 2.5 04:28:35 10° NNE 04:30:55 16° NE 04:30:55 16° NE
MOS 1 Rocket 4.2 04:34:16 47° W 04:34:16 47° W 04:38:50 10° NNW
ATLAS 3B R/B 4.3 04:27:52 10° NW 04:34:07 27° WSW 04:36:15 24° SW
USA 281 3.0 04:36:16 84° SSE 04:36:30 89° WSW 04:43:09 10° NNW
Cosmos 1092 Rocket 4.4 04:38:02 50° ENE 04:38:02 50° ENE 04:43:08 10° NNE
Lacrosse 5 4.3 04:43:37 10° W 04:44:52 12° WSW 04:44:52 12° WSW
Terra 3.8 04:50:17 20° W 04:50:17 20° W 04:53:19 10° NW
Chandra Rocket (1) 4.0 04:52:53 10° W 05:08:13 54° SW 05:08:13 54° SW
Cosmos 1833 Rocket 4.4 05:13:06 24° NE 05:13:06 24° NE 05:15:23 10° NE
CZ-3 Stage 3 3.8 04:44:50 10° WSW 05:16:04 63° S 05:16:07 63° S
Cosmos 2369 Rocket 4.5 05:14:05 10° WNW 05:16:18 13° W 05:16:18 13° W
USA 267 3.5 05:46:35 10° NE 05:52:17 64° N 05:52:17 64° N
Lacrosse 4 Rocket 4.4 06:05:29 10° NNW 06:05:57 13° NNW 06:05:57 13° NNW
Cosmos 1697 Rocket 4.1 06:07:11 10° N 06:10:50 34° NNE 06:10:50 34° NNE
Cosmos 1980 Rocket 4.0 06:15:02 10° N 06:19:10 23° NE 06:19:10 23° NE
USA 59 Rocket 2.7 06:16:26 10° NW 06:17:27 17° NW 06:17:27 17° NW
Cosmos 2082 Rocket 3.3 06:54:16 41° NNE 06:54:16 41° NNE 06:57:55 10° NNE
CZ-2D R/B 4.5 07:04:24 10° ENE 07:06:34 14° E 07:06:34 14° E
Resurs 1-4 Rocket 4.1 07:17:20 10° NE 07:20:15 20° E 07:20:15 20° E
Cosmos 1745 Rocket 4.1 07:47:13 70° NE 07:47:13 70° NE 07:52:55 10° N
NOSS 3-4 (A) 4.0 07:49:54 10° NW 07:56:33 64° W 07:56:33 64° W
NOSS 3-4 (C) 4.0 07:50:01 10° NW 07:56:42 65° W 07:56:42 65° W
NPP 4.1 07:52:01 10° NNE 07:56:33 56° ENE 07:56:33 56° ENE
ATLAS CENTAUR R/B 3.9 07:47:35 10° NW 07:59:33 59° WSW 07:59:39 59° WSW
Cosmos 1980 Rocket 3.7 07:58:18 10° NW 08:00:53 25° NW 08:00:53 25° NW
SJ 16-02 3.0 08:06:53 30° ENE 08:06:53 30° ENE 08:09:34 10° NNE
USA 234 3.1 08:05:25 55° SE 08:07:02 86° NE 08:13:37 10° NW
ADEOS II 3.1 08:02:53 10° NNE 08:07:41 36° E 08:07:42 36° E
IDEFIX/ARIANE 42P 2.8 08:06:58 10° NNE 08:11:29 67° N 08:11:29 67° N
Nadezhda 1 Rocket 3.9 08:10:15 10° N 08:16:37 79° W 08:16:37 79° W
Cosmos 1782 Rocket 4.4 08:24:52 10° N 08:27:55 45° N 08:27:55 45° N
CZ-2C R/B 3.2 08:26:07 10° NNE 08:31:56 74° ESE 08:32:30 68° SSE
SL-16 R/B 2.3 08:28:58 10° NNW 08:34:39 73° ENE 08:36:03 51° SE
Cosmos 968 Rocket 3.8 08:41:59 51° NW 08:41:59 51° NW 08:46:35 10° N
AQUA 3.9 08:39:02 10° NNE 08:43:44 67° ESE 08:43:54 66° ESE
CZ-2D R/B 2.3 08:42:18 10° N 08:47:39 57° WNW 08:47:51 57° W
CRYOSAT 2 4.2 08:42:52 10° N 08:47:45 82° W 08:47:45 82° W
Cosmos 1825 4.4 08:47:20 16° E 08:47:51 17° E 08:50:05 10° NE
Cosmos 1709 Rocket 4.3 08:48:17 48° W 08:48:45 49° W 08:54:54 10° N
BREEZE-M R/B 4.2 08:47:03 35° WNW 08:49:00 52° NNW 09:02:16 10° NE
SL-16 R/B 3.1 08:46:58 13° SE 08:52:30 55° ENE 08:58:36 10° N
Meteor 1-24 Rocket 3.8 08:51:31 53° S 08:53:02 85° E 08:59:05 10° N
DELTA 2 R/B (1) 4.3 08:49:50 16° WNW 08:54:10 50° N 08:59:33 10° E
Cosmos 2237 4.1 08:49:22 10° NNW 08:55:03 64° WSW 08:55:27 62° SW
OAO 3 Rocket 3.2 08:54:36 64° WNW 08:55:18 79° N 09:00:12 10° E
Cosmos 1892 4.3 08:55:11 25° ESE 08:55:32 26° E 08:58:30 10° NNE
Cosmos 2360 Rocket 3.0 08:50:47 10° N 08:56:18 51° ENE 09:01:47 10° SE
Cosmos 841 Rocket 4.4 08:52:42 10° NNW 08:56:15 34° WNW 08:56:15 34° WNW
Resurs 1-4 Rocket 2.7 08:56:15 10° N 09:01:04 38° WNW 09:01:18 38° WNW
Cosmos 2181 Rocket 4.1 08:54:54 10° N 09:01:15 74° E 09:04:59 26° SSE
SL-4 R/B 2.2 09:06:31 64° NW 09:06:41 65° NW 09:11:04 10° NE
Tiangong -0.7 09:08:06 35° ENE 09:08:06 35° ENE 09:10:02 10° ENE
FENGYUN 3A 3.8 09:07:16 10° N 09:12:30 55° WNW 09:13:35 46° WSW
Cosmos 2151 Rocket 4.4 09:09:39 10° N 09:13:59 48° E 09:17:01 18° SSE
CZ-2C R/B 2.9 09:15:09 43° W 09:15:11 43° W 09:20:05 10° NNW
IRAS Rocket 4.1 09:10:24 10° NNE 09:15:54 82° WNW 09:17:50 42° SSW
Cosmos 2278 4.5 09:11:28 10° NW 09:15:52 32° W 09:15:52 32° W
Cosmos 2098 Rocket 3.7 09:12:13 10° N 09:17:48 78° W 09:21:18 28° S
SL-8 R/B 3.5 09:15:14 10° NW 09:20:01 80° SW 09:24:48 10° SE
Cosmos 1674 Rocket 3.5 09:20:36 50° S 09:21:44 88° W 09:26:11 10° N
Lacrosse 5 rocket 1.0 09:20:31 10° NW 09:24:30 87° SW 09:28:17 10° SE
Cosmos 1814 Rocket 3.9 09:21:25 10° NNW 09:26:37 70° WSW 09:29:48 24° S
Okean 2 Rocket 3.4 09:22:26 10° N 09:26:48 63° E 09:30:06 17° SSE
Cosmos 2333 Rocket 2.2 09:24:33 10° NNW 09:30:18 90° WSW 09:36:03 10° SSE
Cosmos 405 Rocket 3.2 09:30:19 10° N 09:33:52 53° E 09:36:44 15° SSE
Cosmos 2322 Rocket 2.3 09:28:29 10° NNW 09:33:59 54° WSW 09:37:44 20° S
Cosmos 1295 Rocket 4.4 09:30:42 28° SSW 09:34:09 76° W 09:40:16 10° N
Meteor 2-5 Rocket 4.4 09:32:53 32° WSW 09:34:42 40° WNW 09:40:15 10° N
Cosmos 2297 Rocket 4.0 09:31:17 10° SSE 09:35:49 25° ESE 09:40:22 10° NE
ATLAS CENTAUR R/B 1.3 09:36:07 41° SSE 09:36:59 55° ESE 09:40:25 10° NE
Cosmos 1378 Rocket 3.9 09:38:01 38° WSW 09:38:48 43° W 09:42:53 10° N
Cosmos 1486 Rocket 4.1 09:36:16 25° S 09:39:18 76° ESE 09:44:30 10° NNE
OAO 1 Rocket 4.4 09:37:32 26° W 09:40:33 80° N 09:45:52 10° E
ALOS 2.8 09:38:05 10° N 09:42:23 40° WNW 09:43:48 31° WSW
SJ 16-02 3.3 09:43:39 14° WNW 09:44:02 14° WNW 09:46:21 10° NNW
Cosmos 1570 Rocket 4.4 09:40:01 10° N 09:45:20 68° ENE 09:50:38 10° SSE
ADEOS II 3.4 09:43:01 10° NNW 09:47:02 23° WNW 09:48:35 20° W
Meteor 1-28 Rocket 4.4 09:51:23 23° W 09:51:23 23° W 09:53:43 10° NW
Cosmos 2074 Rocket 4.3 09:47:32 25° SW 09:50:47 46° W 09:56:44 10° N
Okean 1 Rocket 3.1 09:48:17 10° N 09:52:36 77° E 09:56:54 10° S
UNK 3.8 09:51:38 16° S 09:55:10 56° W 09:59:44 10° NNW
COSMOS 2455 3.9 09:51:10 10° S 09:56:44 42° ESE 10:02:21 10° NE
METEOR-M 4.1 09:52:45 10° N 09:58:04 70° WNW 10:02:09 17° SSW
CZ-2C R/B 2.3 09:54:11 10° NNE 09:58:55 82° ESE 10:02:57 13° S
IRS-1D 3.8 09:56:45 10° NNE 10:02:04 72° ESE 10:07:17 10° S
Envisat 3.1 09:57:48 10° N 10:02:47 60° WNW 10:06:34 17° SSW
Cosmos 158 Rocket 4.4 10:02:14 10° NNW 10:07:37 70° ENE 10:12:53 10° SSE
CZ-4C R/B 3.6 10:05:38 10° SSE 10:08:54 23° ESE 10:12:35 10° ENE
Delta 2 Rocket 4.4 10:08:34 18° WSW 10:12:34 42° S 10:18:12 10° ESE
RESURS DK-1 2.8 10:08:51 10° NW 10:12:37 38° WSW 10:16:22 10° S
Atlas Centaur 2 2.5 10:14:56 16° SSW 10:16:59 24° SSE 10:19:59 10° ESE
SL-16 R/B 4.0 10:16:14 10° W 10:17:48 11° W 10:17:48 11° W
Cosmos 2322 3.9 10:15:01 10° NNW 10:20:43 77° ENE 10:26:22 10° SSE
Cosmos 1825 3.6 10:20:53 15° W 10:21:54 17° WNW 10:24:15 10° NW
Cosmos 1975 Rocket 3.0 10:18:42 10° S 10:22:59 86° E 10:27:17 10° N
Nadezhda 3 Rocket 4.3 10:20:24 10° NNW 10:26:27 48° W 10:32:26 10° SSW
Thor Agena Rocket 3.7 10:24:57 10° N 10:30:07 62° WNW 10:35:17 10° SSW
Cosmos 2219 Rocket 2.5 10:25:43 10° NW 10:31:06 46° WSW 10:36:28 10° S
YAOGAN 6 3.2 10:29:00 10° N 10:31:59 33° WNW 10:34:44 11° SW
SL-24 DEB 4.4 10:28:47 10° N 10:33:09 49° W 10:37:29 10° SSW
SL-16 R/B 3.8 10:32:02 10° SW 10:36:20 19° W 10:40:38 10° NW
Cosmos 2341 Rocket 4.0 10:30:42 10° SSW 10:36:56 69° W 10:43:09 10° N
OAO 3 Rocket 3.4 10:33:49 10° W 10:38:35 52° SSW 10:43:17 10° SE
Cosmos 2360 Rocket 3.6 10:36:09 10° WNW 10:39:46 18° W 10:43:22 10° SW
DELTA 2 R/B (1) 3.5 10:35:14 10° WNW 10:40:47 75° SSW 10:46:18 10° ESE
COSMOS 2428 2.8 10:35:24 10° NNW 10:41:05 89° WSW 10:46:47 10° SSE
Cosmos 2366 rocket 4.1 10:36:54 10° S 10:43:14 77° W 10:49:36 10° N
Tiangong -0.2 10:41:12 10° WNW 10:43:47 23° NNW 10:46:20 10° NE
ATLAS 2AS CENTAUR R/B 2.6 10:38:40 10° NW 10:45:18 64° WSW 10:51:45 10° SSE
Cosmos 1025 Rocket 4.3 10:42:48 10° SW 10:46:17 23° WNW 10:49:48 10° NNW
Geosat 4.4 10:41:46 10° S 10:46:28 41° WSW 10:51:11 10° NW
ASTEX 1 4.0 10:42:57 10° SSW 10:47:27 35° W 10:51:57 10° NNW
H-2A R/B 2.3 10:44:50 10° NNE 10:50:18 88° ESE 10:55:42 10° SSW
In-Cosmos 22 Rocket 4.3 10:46:51 10° SSW 10:52:11 58° W 10:57:41 10° N
Cosmos 1455 Rocket 3.3 10:49:27 10° NNW 10:53:40 50° W 10:57:55 10° SSW
Cosmos 2237 Rocket 3.7 10:49:14 10° N 10:54:38 43° ENE 10:59:59 10° SE
H-2A R/B 4.0 10:52:05 10° NNE 10:55:01 34° E 10:57:57 10° SSE
Cosmos 2227 Rocket 2.6 10:50:30 10° S 10:56:07 69° ESE 11:01:45 10° NNE
ARIANE 5 R/B 4.3 10:51:55 10° NE 10:56:26 32° E 11:00:53 10° SSE
